Нью-Хейвен

США     41°18′26″N   72°55′32″W
темп.,
°C
ветер,
м/с
пор.,
м/с
влажн.,
%
обл.,
%
осадки,
мм/ч
давл.,
гПа
погр.,
м
13 апреля, вт
вт1323:00+7св4880100 0.1 1014580
02:00+6ссв487869 0.1 1014440
05:00+5с497361 0.0 1015333
08:00+7ссв5117380 0.0 1016485
11:00+10ссв3567100 0.0 1017436
14:00+13ссв245893 0.0 1017865
17:00+13всв2360100 0.0 1016657
20:00+11ююз1167100 0.0 101827
14 апреля, ср
ср1423:00+10ююз11725 0.0 101813
02:00+9з227525 0.0 101733
05:00+8з24815 0.0 101766
08:00+10з347121 0.0 1018114
11:00+14юз225599 0.0 1016587
14:00+14ююз455571 0.0 1014833
17:00+11вюв557193 0.0 1013184
20:00+10всв348298 0.0 1013150
15 апреля, чт
чт1523:00+9в5789100 0.0 1013187
02:00+8вюв5997100 1.8 1011236
05:00+8в6997100 1.6 1010271
08:00+7в71197100 7.9 1010385
11:00+7вюв91494100 7.3 1010622
14:00+6в91591100 12.4 1008704
17:00+6в91592100 3.2 1006681
20:00+6в61193100 6.9 1006738
16 апреля, пт
пт1623:00+5св5894100 13.3 1006706
02:00+4св5995100 17.8 1003580
05:00+2ссз5897100 6.4 1003331
08:00+2сз5998100 12.9 1003391
11:00+4сз71296100 1.3 1003739
14:00+4сз81289100 3.9 1003923
17:00+5сз91586100 0.8 10041174
20:00+4сз71396100 1.8 1006808
17 апреля, сб
сб1723:00+4ссз61188100 0.1 1008850
02:00+5сз61183100 0.1 1009852
05:00+5ссз5986100 0.1 1011851
08:00+5сз5981100 0.1 1013481
11:00+9с466592 0.0 1013879
14:00+10с346594 0.1 1013766
17:00+9с3568100 0.1 1014427
20:00+9с1275100 0.1 1015114